Time,TemperatureF,DewpointF,PressureIn,WindDirection,WindDirectionDegrees,WindSpeedMPH,WindSpeedGustMPH,Humidity,HourlyPrecipIn,Conditions,Clouds,dailyrainin,SoftwareType,DateUTC
2013-07-11 00:02:00,72.0,-99.9,-100.00,North,-999,-999.0,-999.0,-999,0.00,,,1.00,,2013-07-11 04:02:00,
2013-07-11 00:12:00,72.0,-99.9,-100.00,North,-999,-999.0,-999.0,-999,0.00,,,1.00,,2013-07-11 04:12:00,
2013-07-11 00:22:00,72.0,-99.9,-100.00,North,-999,-999.0,-999.0,-999,0.00,,,1.00,,2013-07-11 04:22:00,
2013-07-11 00:30:00,71.0,-99.9,-100.00,North,-999,-999.0,-999.0,-999,0.00,,,1.00,,2013-07-11 04:30:00,
2013-07-11 00:54:00,71.0,-99.9,-100.00,North,-999,-999.0,-999.0,-999,0.00,,,1.00,,2013-07-11 04:54:00,
2013-07-11 01:02:00,71.0,-99.9,-100.00,North,-999,-999.0,-999.0,-999,0.00,,,1.00,,2013-07-11 05:02:00,
2013-07-11 01:12:00,71.0,-99.9,-100.00,North,-999,-999.0,-999.0,-999,0.00,,,1.00,,2013-07-11 05:12:00,
2013-07-11 01:22:00,71.0,-99.9,-100.00,North,-999,-999.0,-999.0,-999,0.00,,,1.00,,2013-07-11 05:22:00,
2013-07-11 01:30:00,72.0,-99.9,-100.00,North,-999,-999.0,-999.0,-999,0.00,,,1.00,,2013-07-11 05:30:00,
2013-07-11 01:52:00,72.0,-99.9,-100.00,North,-999,-999.0,-999.0,-999,0.00,,,1.00,,2013-07-11 05:52:00,
2013-07-11 02:02:00,72.0,-99.9,-100.00,North,-999,-999.0,-999.0,-999,0.00,,,1.00,,2013-07-11 06:02:00,
2013-07-11 02:12:00,72.0,-99.9,-100.00,North,-999,-999.0,-999.0,-999,0.00,,,1.00,,2013-07-11 06:12:00,
2013-07-11 02:22:00,72.0,-99.9,-100.00,North,-999,-999.0,-999.0,-999,0.00,,,1.00,,2013-07-11 06:22:00,
2013-07-11 02:30:00,72.0,-99.9,-100.00,North,-999,-999.0,-999.0,-999,0.00,,,1.00,,2013-07-11 06:30:00,
2013-07-11 03:02:00,72.0,-99.9,-100.00,North,-999,-999.0,-999.0,-999,0.00,,,1.00,,2013-07-11 07:02:00,
2013-07-11 03:12:00,72.0,-99.9,-100.00,North,-999,-999.0,-999.0,-999,0.00,,,1.00,,2013-07-11 07:12:00,
2013-07-11 03:22:00,72.0,-99.9,-100.00,North,-999,-999.0,-999.0,-999,0.00,,,1.00,,2013-07-11 07:22:00,
2013-07-11 03:30:00,72.0,-99.9,-100.00,North,-999,-999.0,-999.0,-999,0.00,,,1.00,,2013-07-11 07:30:00,
2013-07-11 03:54:00,72.0,-99.9,-100.00,North,-999,-999.0,-999.0,-999,0.00,,,1.00,,2013-07-11 07:54:00,
2013-07-11 04:02:00,72.0,-99.9,-100.00,North,-999,-999.0,-999.0,-999,0.00,,,1.00,,2013-07-11 08:02:00,
2013-07-11 04:12:00,72.0,-99.9,-100.00,North,-999,-999.0,-999.0,-999,0.00,,,1.00,,2013-07-11 08:12:00,
2013-07-11 04:22:00,72.0,-99.9,-100.00,North,-999,-999.0,-999.0,-999,0.00,,,1.00,,2013-07-11 08:22:00,
2013-07-11 04:30:00,72.0,-99.9,-100.00,North,-999,-999.0,-999.0,-999,0.00,,,1.00,,2013-07-11 08:30:00,
2013-07-11 04:53:00,72.0,-99.9,-100.00,North,-999,-999.0,-999.0,-999,0.00,,,1.00,,2013-07-11 08:53:00,
2013-07-11 05:03:00,72.0,-99.9,-100.00,North,-999,-999.0,-999.0,-999,0.00,,,1.00,,2013-07-11 09:03:00,
2013-07-11 05:12:00,72.0,-99.9,-100.00,North,-999,-999.0,-999.0,-999,0.00,,,1.00,,2013-07-11 09:12:00,
2013-07-11 05:22:00,72.0,-99.9,-100.00,North,-999,-999.0,-999.0,-999,0.00,,,1.00,,2013-07-11 09:22:00,
2013-07-11 05:30:00,71.0,-99.9,-100.00,North,-999,-999.0,-999.0,-999,0.00,,,1.00,,2013-07-11 09:30:00,
2013-07-11 05:53:00,71.0,-99.9,-100.00,North,-999,-999.0,-999.0,-999,0.00,,,1.00,,2013-07-11 09:53:00,
2013-07-11 06:02:00,71.0,-99.9,-100.00,North,-999,-999.0,-999.0,-999,0.00,,,1.00,,2013-07-11 10:02:00,
2013-07-11 06:12:00,71.0,-99.9,-100.00,North,-999,-999.0,-999.0,-999,0.00,,,1.00,,2013-07-11 10:12:00,
2013-07-11 06:22:00,71.0,-99.9,-100.00,North,-999,-999.0,-999.0,-999,0.00,,,1.00,,2013-07-11 10:22:00,
2013-07-11 06:30:00,71.0,-99.9,-100.00,North,-999,-999.0,-999.0,-999,0.00,,,1.00,,2013-07-11 10:30:00,
2013-07-11 07:02:00,71.0,-99.9,-100.00,North,-999,-999.0,-999.0,-999,0.00,,,1.00,,2013-07-11 11:02:00,
2013-07-11 07:12:00,71.0,-99.9,-100.00,North,-999,-999.0,-999.0,-999,0.00,,,1.00,,2013-07-11 11:12:00,
2013-07-11 07:22:00,71.0,-99.9,-100.00,North,-999,-999.0,-999.0,-999,0.00,,,1.00,,2013-07-11 11:22:00,
2013-07-11 07:30:00,72.0,-99.9,-100.00,North,-999,-999.0,-999.0,-999,0.00,,,0.99,,2013-07-11 11:30:00,
2013-07-11 08:02:00,72.0,-99.9,-100.00,North,-999,-999.0,-999.0,-999,0.00,,,0.99,,2013-07-11 12:02:00,
2013-07-11 08:12:00,72.0,-99.9,-100.00,North,-999,-999.0,-999.0,-999,0.00,,,0.99,,2013-07-11 12:12:00,
2013-07-11 08:22:00,72.0,-99.9,-100.00,North,-999,-999.0,-999.0,-999,0.00,,,0.99,,2013-07-11 12:22:00,
2013-07-11 08:30:00,72.0,-99.9,-100.00,North,-999,-999.0,-999.0,-999,0.00,,,0.98,,2013-07-11 12:30:00,
2013-07-11 08:59:00,72.0,-99.9,-100.00,North,-999,-999.0,-999.0,-999,0.00,,,0.98,,2013-07-11 12:59:00,
2013-07-11 09:04:00,72.0,-99.9,-100.00,North,-999,-999.0,-999.0,-999,0.00,,,0.98,,2013-07-11 13:04:00,
2013-07-11 09:30:00,73.0,-99.9,-100.00,North,-999,-999.0,-999.0,-999,0.00,,,0.98,,2013-07-11 13:30:00,
2013-07-11 10:17:00,73.0,-99.9,-100.00,North,-999,-999.0,-999.0,-999,0.00,,,0.98,,2013-07-11 14:17:00,
2013-07-11 10:30:00,75.0,-99.9,-100.00,North,-999,-999.0,-999.0,-999,0.00,,,0.98,,2013-07-11 14:30:00,
2013-07-11 11:07:00,75.0,-99.9,-100.00,North,-999,-999.0,-999.0,-999,0.00,,,0.98,,2013-07-11 15:07:00,
2013-07-11 11:16:00,75.0,-99.9,-100.00,North,-999,-999.0,-999.0,-999,0.00,,,0.98,,2013-07-11 15:16:00,
2013-07-11 11:26:00,75.0,-99.9,-100.00,North,-999,-999.0,-999.0,-999,0.00,,,0.98,,2013-07-11 15:26:00,
2013-07-11 11:30:00,77.0,-99.9,-100.00,North,-999,-999.0,-999.0,-999,0.00,,,0.98,,2013-07-11 15:30:00,
2013-07-11 12:08:00,77.0,-99.9,-100.00,North,-999,-999.0,-999.0,-999,0.00,,,0.98,,2013-07-11 16:08:00,
2013-07-11 12:15:00,77.0,-99.9,-100.00,North,-999,-999.0,-999.0,-999,0.00,,,0.98,,2013-07-11 16:15:00,
2013-07-11 12:27:00,77.0,-99.9,-100.00,North,-999,-999.0,-999.0,-999,0.00,,,0.98,,2013-07-11 16:27:00,
2013-07-11 12:30:00,78.0,-99.9,-100.00,North,-999,-999.0,-999.0,-999,0.00,,,0.98,,2013-07-11 16:30:00,
2013-07-11 13:05:00,78.0,-99.9,-100.00,North,-999,-999.0,-999.0,-999,0.00,,,0.98,,2013-07-11 17:05:00,
2013-07-11 13:27:00,78.0,-99.9,-100.00,North,-999,-999.0,-999.0,-999,0.00,,,0.98,,2013-07-11 17:27:00,
2013-07-11 13:30:00,81.0,-99.9,-100.00,North,-999,-999.0,-999.0,-999,0.00,,,0.98,,2013-07-11 17:30:00,
2013-07-11 14:09:00,81.0,-99.9,-100.00,North,-999,-999.0,-999.0,-999,0.00,,,0.98,,2013-07-11 18:09:00,
2013-07-11 14:25:00,81.0,-99.9,-100.00,North,-999,-999.0,-999.0,-999,0.00,,,0.98,,2013-07-11 18:25:00,
2013-07-11 14:30:00,82.0,-99.9,-100.00,North,-999,-999.0,-999.0,-999,0.00,,,0.98,,2013-07-11 18:30:00,
2013-07-11 15:07:00,82.0,-99.9,-100.00,North,-999,-999.0,-999.0,-999,0.00,,,0.98,,2013-07-11 19:07:00,
2013-07-11 15:13:00,82.0,-99.9,-100.00,North,-999,-999.0,-999.0,-999,0.00,,,0.98,,2013-07-11 19:13:00,
2013-07-11 15:25:00,82.0,-99.9,-100.00,North,-999,-999.0,-999.0,-999,0.00,,,0.98,,2013-07-11 19:25:00,
2013-07-11 15:30:00,82.0,-99.9,-100.00,North,-999,-999.0,-999.0,-999,0.00,,,0.60,,2013-07-11 19:30:00,
2013-07-11 16:08:00,82.0,-99.9,-100.00,North,-999,-999.0,-999.0,-999,0.00,,,0.60,,2013-07-11 20:08:00,
2013-07-11 16:15:00,82.0,-99.9,-100.00,North,-999,-999.0,-999.0,-999,0.00,,,0.60,,2013-07-11 20:15:00,
2013-07-11 16:27:00,82.0,-99.9,-100.00,North,-999,-999.0,-999.0,-999,0.00,,,0.60,,2013-07-11 20:27:00,
2013-07-11 17:09:00,79.0,-99.9,-100.00,North,-999,-999.0,-999.0,-999,0.00,,,0.33,,2013-07-11 21:09:00,
2013-07-11 17:16:00,79.0,-99.9,-100.00,North,-999,-999.0,-999.0,-999,0.00,,,0.33,,2013-07-11 21:16:00,
2013-07-11 17:26:00,79.0,-99.9,-100.00,North,-999,-999.0,-999.0,-999,0.00,,,0.33,,2013-07-11 21:26:00,
2013-07-11 17:30:00,78.0,-99.9,-100.00,North,-999,-999.0,-999.0,-999,0.00,,,0.01,,2013-07-11 21:30:00,
2013-07-11 18:09:00,78.0,-99.9,-100.00,North,-999,-999.0,-999.0,-999,0.00,,,0.01,,2013-07-11 22:09:00,
2013-07-11 18:18:00,78.0,-99.9,-100.00,North,-999,-999.0,-999.0,-999,0.00,,,0.01,,2013-07-11 22:18:00,
2013-07-11 18:28:00,78.0,-99.9,-100.00,North,-999,-999.0,-999.0,-999,0.00,,,0.01,,2013-07-11 22:28:00,
2013-07-11 18:30:00,77.0,-99.9,-100.00,North,-999,-999.0,-999.0,-999,0.00,,,0.00,,2013-07-11 22:30:00,
2013-07-11 18:57:00,77.0,-99.9,-100.00,North,-999,-999.0,-999.0,-999,0.00,,,0.00,,2013-07-11 22:57:00,
2013-07-11 19:10:00,77.0,-99.9,-100.00,North,-999,-999.0,-999.0,-999,0.00,,,0.00,,2013-07-11 23:10:00,
2013-07-11 19:30:00,78.0,-99.9,-100.00,North,-999,-999.0,-999.0,-999,0.00,,,0.00,,2013-07-11 23:30:00,
2013-07-11 20:02:00,78.0,-99.9,-100.00,North,-999,-999.0,-999.0,-999,0.00,,,0.00,,2013-07-12 00:02:00,
2013-07-11 20:16:00,78.0,-99.9,-100.00,North,-999,-999.0,-999.0,-999,0.00,,,0.00,,2013-07-12 00:16:00,
2013-07-11 20:26:00,78.0,-99.9,-100.00,North,-999,-999.0,-999.0,-999,0.00,,,0.00,,2013-07-12 00:26:00,
2013-07-11 20:30:00,73.0,-99.9,-100.00,North,-999,-999.0,-999.0,-999,0.00,,,0.00,,2013-07-12 00:30:00,
2013-07-11 21:00:00,73.0,-99.9,-100.00,North,-999,-999.0,-999.0,-999,0.00,,,0.00,,2013-07-12 01:00:00,
2013-07-11 21:08:00,73.0,-99.9,-100.00,North,-999,-999.0,-999.0,-999,0.00,,,0.00,,2013-07-12 01:08:00,
2013-07-11 21:15:00,73.0,-99.9,-100.00,North,-999,-999.0,-999.0,-999,0.00,,,0.00,,2013-07-12 01:15:00,
2013-07-11 21:28:00,73.0,-99.9,-100.00,North,-999,-999.0,-999.0,-999,0.00,,,0.00,,2013-07-12 01:28:00,
2013-07-11 21:30:00,71.0,-99.9,-100.00,North,-999,-999.0,-999.0,-999,0.00,,,0.00,,2013-07-12 01:30:00,
2013-07-11 21:57:00,71.0,-99.9,-100.00,North,-999,-999.0,-999.0,-999,0.00,,,0.00,,2013-07-12 01:57:00,
2013-07-11 22:11:00,71.0,-99.9,-100.00,North,-999,-999.0,-999.0,-999,0.00,,,0.00,,2013-07-12 02:11:00,
2013-07-11 22:19:00,71.0,-99.9,-100.00,North,-999,-999.0,-999.0,-999,0.00,,,0.00,,2013-07-12 02:19:00,
2013-07-11 22:28:00,71.0,-99.9,-100.00,North,-999,-999.0,-999.0,-999,0.00,,,0.00,,2013-07-12 02:28:00,
2013-07-11 22:30:00,70.0,-99.9,-100.00,North,-999,-999.0,-999.0,-999,0.00,,,0.00,,2013-07-12 02:30:00,
2013-07-11 23:05:00,70.0,-99.9,-100.00,North,-999,-999.0,-999.0,-999,0.00,,,0.00,,2013-07-12 03:05:00,
2013-07-11 23:15:00,70.0,-99.9,-100.00,North,-999,-999.0,-999.0,-999,0.00,,,0.00,,2013-07-12 03:15:00,
2013-07-11 23:28:00,70.0,-99.9,-100.00,North,-999,-999.0,-999.0,-999,0.00,,,0.00,,2013-07-12 03:28:00,
2013-07-11 23:30:00,68.0,-99.9,-100.00,North,-999,-999.0,-999.0,-999,0.00,,,0.00,,2013-07-12 03:30:00,
2013-07-11 23:59:00,68.0,-99.9,-100.00,North,-999,-999.0,-999.0,-999,0.00,,,0.00,,2013-07-12 03:59:00,